Fort Polk, LA

6:30 PM CDT on October 22, 2019 (GMT -0500)
Fort Polk

Weather History for KAQV - August, 2019

Change the Weather History Date:

Tuesday, August 13, 2019

  Actual Average (WUND) Record (WUND)
Temperature  
Mean Temperature 88 °F -  
Max Temperature 97 °F - - (-1)
Min Temperature 78 °F - - (-1)
Cooling Degree Days 22    
Growing Degree Days 38 (Base 50)    
Moisture  
Dew Point 75 °F    
Average Humidity 73    
Maximum Humidity 93    
Minimum Humidity 44    
Precipitation  
Precipitation 0.00 in - - ()
Sea Level Pressure  
Sea Level Pressure 29.90 in    
Wind  
Wind Speed 2 mph (West)    
Max Wind Speed 7 mph    
Max Gust Speed -    
Visibility 10 miles    
Events      
Averages and records for this station are not official NWS values.
T = Trace of Precipitation, MM = Missing Value Source: NWS Daily Summary

Daily Weather History Graph

Daily Weather History Graph

Search for Another Location

Airport or City:

Astronomy

Aug. 13, 2019 Rise Set
Actual Time 6:37 AM CDT 7:58 PM CDT
Civil Twilight 6:11 AM CDT 8:24 PM CDT
Nautical Twilight 5:40 AM CDT 8:54 PM CDT
Astronomical Twilight 5:08 AM CDT 9:26 PM CDT
Moon 7:06 PM CDT (8/13) 4:47 AM CDT (8/13)
Length of Visible Light 14h 12m
Length of Day
13h 21m
Waxing Gibbous, 97% of the Moon is Illuminated
Aug 13
Waxing Gibbous
Aug 15
Full
Aug 23
Last Quarter
Aug 30
New
Sep 5
First Quarter

Hourly Weather History & Observations

Time (CDT) Temp. Heat Index Dew Point Humidity Pressure Visibility Wind Dir Wind Speed Gust Speed Precip Events Conditions
12:56 AM 80.1 °F 85.1 °F 75.0 °F 85% 29.89 in 10.0 mi Calm Calm - N/A   Clear
1:56 AM 79.0 °F - 75.0 °F 88% 29.89 in 10.0 mi Calm Calm - N/A   Clear
2:56 AM 79.0 °F - 75.0 °F 88% 29.88 in 10.0 mi Calm Calm - N/A   Clear
3:56 AM 79.0 °F - 75.0 °F 88% 29.88 in 10.0 mi Calm Calm - N/A   Clear
4:56 AM 78.1 °F - 75.0 °F 90% 29.88 in 10.0 mi Calm Calm - N/A   Clear
5:56 AM 78.1 °F - 75.9 °F 93% 29.90 in 8.0 mi Variable 3.5 mph - N/A   Clear
6:56 AM 79.0 °F - 75.9 °F 90% 29.92 in 7.0 mi Variable 3.5 mph - N/A   Partly Cloudy
7:56 AM 81.0 °F 87.9 °F 77.0 °F 88% 29.92 in 9.0 mi Calm Calm - N/A   Clear
8:28 AM 82.9 °F 91.8 °F 77.0 °F 82% 29.94 in 10.0 mi West 6.9 mph - N/A   Partly Cloudy
8:56 AM 84.9 °F 95.3 °F 77.0 °F 77% 29.94 in 10.0 mi Variable 4.6 mph - N/A   Scattered Clouds
9:56 AM 88.0 °F 98.5 °F 75.9 °F 67% 29.94 in 10.0 mi Variable 5.8 mph - N/A   Partly Cloudy
10:46 AM 88.0 °F 97.5 °F 75.0 °F 65% 29.96 in 10.0 mi Variable 3.5 mph - N/A   Mostly Cloudy
10:54 AM 91.4 °F 102.5 °F 75.2 °F 59% 29.96 in 10.0 mi Variable 4.6 mph - N/A   Scattered Clouds
10:56 AM 91.0 °F 101.6 °F 75.0 °F 59% 29.94 in 10.0 mi Variable 4.6 mph - N/A   Scattered Clouds
11:56 AM 91.9 °F 101.3 °F 73.9 °F 55% 29.94 in 10.0 mi Variable 4.6 mph - N/A   Scattered Clouds
1:56 PM 97.0 °F 107.0 °F 73.0 °F 46% 29.90 in 10.0 mi Variable 5.8 mph - N/A   Partly Cloudy
2:56 PM 96.1 °F 104.9 °F 72.0 °F 46% 29.88 in 10.0 mi West 3.5 mph - N/A   Mostly Cloudy
3:56 PM 97.0 °F 105.5 °F 72.0 °F 44% 29.87 in 10.0 mi Variable 3.5 mph - N/A   Mostly Cloudy
4:56 PM 93.9 °F 103.4 °F 73.0 °F 51% 29.86 in 10.0 mi Calm Calm - N/A   Mostly Cloudy
5:56 PM 91.9 °F 101.3 °F 73.9 °F 55% 29.86 in 10.0 mi Calm Calm - N/A   Partly Cloudy
6:56 PM 90.0 °F 102.5 °F 77.0 °F 65% 29.87 in 10.0 mi Calm Calm - N/A   Clear
7:56 PM 84.9 °F 95.3 °F 77.0 °F 77% 29.87 in 10.0 mi Calm Calm - N/A   Clear
8:56 PM 82.9 °F 90.8 °F 75.9 °F 79% 29.88 in 10.0 mi Calm Calm - N/A   Clear
9:56 PM 81.0 °F 87.3 °F 75.9 °F 85% 29.89 in 10.0 mi Calm Calm - N/A   Clear
10:56 PM 80.1 °F 85.1 °F 75.0 °F 85% 29.89 in 10.0 mi Calm Calm - N/A   Clear
11:56 PM 79.0 °F - 75.0 °F 88% 29.90 in 10.0 mi Calm Calm - N/A   Clear